Temp
14 14 14 14 14 14 14 14 14 14 15 15 15 15 15 15 15 16 16 16 16 16 16 17 17 17 18 18 21 22 22 22 22 22 22 21 20 21 20 21 21 20 18 17 17 17 18
14 14 14 14 14 14 14 14 14 14 15 15 15 15 15 15 16 16 16 16 16 17 16 17 17 17 17 17 21 21 21 22 22 22 22 22 21 21 21 22 22 20 18 18 18 18 18
14 14 14 14 14 14 14 14 14 15 15 15 15 15 15 16 16 16 16 17 17 17 17 17 17 17 17 21 21 21 21 21 21 22 23 22 22 22 22 22 20 18 18 18 18 18 17
14 14 14 14 14 14 14 14 14 15 15 15 15 15 16 16 16 17 17 17 17 17 17 17 17 17 20 21 21 22 21 21 22 21 21 22 22 22 22 21 20 20 17 19 17 17 19
14 14 14 14 14 14 14 14 14 14 15 15 15 15 16 16 17 17 18 18 18 18 18 17 17 17 21 21 22 22 22 21 22 21 21 22 22 22 22 19 18 18 18 17 18 16 18
14 14 14 14 14 14 14 14 14 15 15 15 15 15 16 17 17 18 19 19 19 19 18 17 17 17 22 22 22 22 22 21 22 22 22 22 22 18 17 17 19 18 17 18 17 17 17
14 14 14 14 14 14 14 14 14 15 15 15 16 16 16 17 18 20 20 20 19 19 18 20 20 20 22 23 22 22 22 22 22 22 20 22 19 18 20 20 22 20 19 18 17 17 17
14 14 14 14 14 14 14 14 14 15 15 15 16 16 17 18 19 20 20 20 19 18 18 21 21 21 23 22 22 23 22 22 21 19 20 19 18 20 21 21 21 19 19 18 18 18 17
14 14 13 14 13 14 14 14 14 15 15 16 16 17 18 19 20 20 20 19 19 19 17 21 22 22 23 23 23 23 23 23 21 20 20 19 21 21 22 20 20 19 20 18 18 17 17
14 13 13 13 13 13 14 14 14 15 16 16 17 18 19 19 20 20 20 20 20 20 14 19 22 23 24 23 23 24 24 24 22 20 20 20 21 22 20 20 19 19 20 19 17 18 18
13 13 13 13 13 13 14 14 14 15 16 17 17 18 19 19 20 20 20 20 20 20 16 22 23 24 24 23 24 24 24 24 22 22 21 20 22 21 21 21 20 20 20 19 18 17 18
13 13 13 13 13 13 14 14 15 16 17 17 18 18 19 20 20 20 20 21 21 16 19 21 23 23 23 23 23 24 23 24 24 22 20 20 24 22 21 22 21 20 19 18 18 17 17
13 13 13 13 14 14 14 14 15 16 18 19 19 19 20 20 20 20 20 21 16 16 20 22 22 22 22 21 23 22 22 21 20 20 19 20 22 20 20 18 19 19 18 16 18 18 18
13 13 13 13 14 14 15 15 15 17 18 19 20 20 20 20 20 20 20 16 17 20 19 21 20 21 22 20 22 23 21 20 21 20 18 19 19 20 22 19 18 18 19 17 18 18 20
13 13 13 14 14 14 15 15 16 17 19 20 20 20 21 21 21 20 20 15 18 20 21 21 20 18 19 20 22 21 21 19 22 20 20 19 20 22 22 20 20 19 18 20 19 19 19
13 13 13 14 14 14 15 15 16 17 19 20 21 21 22 21 21 20 15 15 17 21 23 21 20 19 20 20 20 20 20 22 22 22 19 20 20 21 24 21 21 19 19 19 17 19 19
13 13 13 13 14 14 14 15 16 17 19 20 21 21 21 21 21 19 15 15 19 23 23 21 21 20 20 20 20 19 19 22 21 22 20 19 18 21 21 21 20 20 20 18 17 17 19
13 13 12 13 13 14 14 14 16 16 18 20 20 17 21 20 19 13 14 16 23 22 23 21 21 21 20 19 18 19 20 22 23 21 21 19 15 18 21 20 19 21 21 18 18 21 17
13 13 12 12 13 13 14 14 15 16 17 18 18 19 20 21 16 14 16 19 23 22 21 22 20 20 18 17 19 19 19 22 22 22 21 20 16 15 16 18 19 19 20 20 15 15 18
12 13 12 12 12 13 14 14 14 15 16 17 18 14 20 20 19 17 18 20 22 23 21 21 20 19 18 16 15 18 18 20 21 22 22 19 15 16 15 18 18 20 20 20 16 16 17
12 12 12 12 12 12 13 14 14 14 16 16 17 16 17 14 16 15 18 20 21 21 21 20 19 18 18 17 17 17 18 17 20 21 20 17 17 18 19 16 20 21 19 19 18 17 19
12 12 12 12 12 12 12 13 14 14 15 15 16 15 17 16 16 15 14 20 20 20 21 20 19 18 18 18 18 18 18 18 18 17 17 14 16 17 19 20 21 19 19 18 17 17 16
12 12 12 12 11 12 12 12 13 14 14 14 15 14 14 16 14 15 16 18 19 20 21 21 20 17 19 19 20 19 18 16 15 16 15 14 14 14 17 17 20 18 16 17 16 16 16
11 12 12 12 11 11 11 12 12 13 13 13 13 13 13 13 14 16 17 18 20 20 20 21 21 19 21 20 18 16 16 15 15 12 12 14 12 11 14 15 17 16 14 17 16 16 15
11 11 12 12 11 11 11 11 12 12 13 13 13 13 13 12 15 17 18 20 20 20 20 21 21 21 21 20 14 13 12 16 13 12 11 10 10 11 13 12 14 15 15 15 14 16 14
11 11 12 12 11 11 11 11 11 12 12 13 13 13 13 12 14 17 17 18 16 16 16 20 21 21 21 12 12 14 14 13 14 13 12 11 8 12 10 14 14 14 13 14 13 15 16
11 11 11 12 11 10 10 11 11 12 12 12 13 13 13 13 16 17 17 17 18 17 15 16 19 20 19 11 11 11 12 12 13 14 14 10 10 12 11 13 13 14 15 14 16 14 16
11 11 10 9 10 10 10 11 11 11 12 12 12 12 12 13 16 17 18 17 19 18 15 18 16 17 12 12 11 10 11 10 11 12 13 11 11 10 10 12 14 14 15 15 14 15 16
10 10 9 8 8 9 10 11 11 11 11 11 12 12 12 13 15 16 18 19 19 20 20 18 18 16 16 9 9 8 11 8 9 12 10 11 11 11 11 11 12 13 13 14 14 15 14
Height
1540 1538 1536 1533 1531 1529 1527 1526 1524 1522 1521 1519 1517 1516 1513 1511 1509 1507 1505 1503 1501 1500 1498 1496 1495 1495 1495 1495 1493 1493 1493 1493 1495 1496 1499 1501 1505 1507 1510 1508 1508 1510 1514 1519 1521 1521 1522
1542 1539 1536 1534 1532 1530 1528 1526 1524 1522 1521 1518 1517 1515 1513 1512 1509 1507 1505 1503 1502 1500 1498 1497 1496 1495 1495 1495 1493 1493 1493 1494 1495 1496 1498 1502 1505 1507 1507 1506 1507 1508 1515 1517 1521 1523 1522
1543 1540 1537 1535 1533 1531 1528 1526 1524 1522 1521 1519 1517 1515 1513 1511 1509 1507 1505 1503 1501 1500 1498 1497 1496 1495 1494 1493 1493 1494 1494 1494 1495 1496 1498 1502 1504 1506 1507 1506 1510 1510 1518 1520 1523 1525 1525
1543 1541 1538 1536 1533 1531 1529 1527 1524 1522 1520 1518 1516 1515 1512 1510 1509 1506 1504 1503 1501 1500 1498 1497 1496 1495 1492 1492 1493 1493 1494 1494 1494 1496 1500 1503 1506 1507 1506 1507 1510 1514 1519 1522 1524 1527 1525
1544 1541 1539 1536 1534 1531 1529 1527 1524 1522 1520 1518 1516 1514 1511 1509 1507 1506 1504 1502 1500 1499 1498 1497 1496 1496 1492 1492 1492 1492 1494 1495 1494 1497 1500 1503 1506 1506 1506 1510 1519 1520 1533 1531 1531 1527 1526
1544 1542 1539 1536 1534 1531 1529 1527 1524 1522 1520 1517 1515 1513 1511 1508 1507 1505 1504 1502 1500 1498 1498 1497 1496 1497 1492 1492 1491 1491 1493 1495 1496 1498 1501 1503 1504 1507 1511 1518 1531 1526 1533 1534 1532 1529 1525
1546 1543 1540 1536 1534 1531 1529 1527 1524 1522 1519 1517 1514 1512 1509 1507 1506 1505 1504 1502 1504 1501 1497 1496 1495 1495 1492 1492 1491 1491 1493 1495 1497 1499 1502 1502 1508 1515 1510 1509 1508 1514 1523 1531 1533 1528 1526
1547 1544 1540 1538 1535 1532 1529 1526 1524 1521 1519 1516 1513 1510 1508 1506 1505 1505 1504 1505 1506 1507 1499 1492 1491 1491 1491 1492 1493 1493 1494 1497 1497 1503 1501 1507 1513 1504 1505 1506 1509 1516 1521 1532 1530 1526 1532
1549 1545 1542 1539 1536 1533 1529 1526 1524 1521 1518 1516 1512 1509 1506 1505 1505 1506 1505 1506 1505 1503 1502 1493 1490 1490 1491 1492 1492 1492 1495 1496 1497 1501 1504 1511 1504 1499 1503 1509 1513 1517 1516 1522 1525 1531 1531
1550 1546 1543 1539 1536 1533 1530 1526 1524 1521 1518 1515 1512 1509 1507 1506 1508 1506 1506 1505 1504 1502 1512 1498 1492 1490 1490 1491 1491 1492 1494 1496 1497 1502 1504 1507 1499 1502 1508 1511 1510 1521 1511 1515 1523 1530 1541
1552 1548 1544 1540 1537 1533 1530 1527 1524 1521 1518 1515 1512 1509 1508 1507 1507 1507 1507 1505 1503 1502 1534 1494 1491 1490 1490 1491 1491 1490 1493 1495 1498 1499 1503 1508 1500 1504 1509 1500 1503 1514 1511 1520 1524 1529 1535
1553 1549 1545 1541 1537 1534 1530 1527 1523 1520 1517 1514 1511 1509 1508 1508 1507 1507 1505 1504 1504 1517 1524 1499 1491 1490 1491 1489 1490 1490 1492 1495 1495 1497 1499 1499 1492 1494 1494 1494 1502 1510 1518 1524 1522 1533 1547
1554 1550 1546 1542 1538 1534 1530 1526 1522 1520 1517 1514 1512 1510 1509 1509 1508 1507 1505 1503 1517 1528 1503 1501 1495 1491 1492 1492 1490 1490 1494 1498 1504 1511 1512 1499 1494 1492 1491 1504 1508 1510 1522 1544 1547 1547 1545
1555 1551 1546 1542 1538 1533 1530 1526 1522 1518 1516 1514 1512 1511 1509 1508 1508 1507 1505 1505 1527 1508 1507 1496 1495 1494 1497 1496 1492 1491 1497 1504 1497 1501 1511 1515 1517 1495 1489 1494 1502 1510 1512 1534 1555 1549 1535
1556 1551 1547 1542 1537 1533 1529 1525 1521 1518 1515 1513 1511 1509 1508 1508 1507 1507 1506 1524 1519 1507 1499 1499 1497 1506 1507 1499 1496 1495 1499 1504 1496 1496 1509 1514 1508 1487 1487 1489 1493 1510 1518 1506 1523 1528 1535
1557 1552 1547 1543 1538 1533 1528 1524 1520 1517 1514 1512 1511 1508 1507 1507 1508 1508 1511 1520 1511 1500 1497 1498 1508 1505 1510 1505 1503 1502 1503 1497 1496 1494 1492 1499 1513 1493 1488 1490 1493 1497 1497 1521 1524 1543 1542
1557 1553 1548 1543 1538 1533 1528 1523 1519 1516 1513 1511 1510 1509 1509 1508 1509 1510 1520 1518 1505 1499 1496 1500 1503 1506 1505 1505 1504 1508 1506 1497 1493 1492 1491 1496 1505 1502 1493 1495 1499 1505 1506 1509 1514 1524 1533
1557 1553 1548 1543 1538 1533 1528 1523 1519 1515 1512 1511 1509 1511 1509 1510 1512 1514 1516 1509 1501 1499 1498 1499 1500 1502 1505 1506 1508 1507 1507 1499 1494 1494 1496 1495 1507 1512 1500 1490 1491 1491 1500 1506 1520 1516 1522
1556 1552 1547 1543 1538 1533 1529 1524 1520 1516 1513 1511 1510 1509 1509 1509 1518 1517 1508 1504 1501 1499 1500 1500 1504 1503 1504 1510 1512 1507 1505 1496 1494 1495 1496 1494 1512 1527 1520 1506 1496 1501 1496 1498 1508 1514 1521
1555 1551 1547 1542 1538 1533 1529 1525 1522 1518 1516 1514 1512 1513 1508 1508 1510 1510 1508 1503 1501 1500 1502 1503 1505 1504 1506 1512 1511 1512 1508 1499 1497 1495 1495 1493 1511 1516 1532 1521 1512 1508 1500 1496 1504 1521 1519
1552 1549 1545 1541 1537 1533 1529 1525 1522 1519 1516 1515 1513 1513 1513 1515 1509 1508 1507 1501 1502 1504 1503 1505 1507 1508 1509 1516 1515 1515 1509 1505 1498 1498 1497 1499 1513 1508 1503 1511 1505 1502 1501 1500 1505 1507 1509
1550 1546 1543 1540 1536 1532 1528 1525 1522 1519 1516 1515 1515 1514 1513 1511 1509 1508 1507 1503 1502 1502 1504 1506 1509 1509 1508 1512 1512 1514 1510 1509 1508 1502 1502 1504 1515 1511 1508 1500 1502 1509 1504 1502 1506 1508 1511
1546 1543 1540 1537 1534 1530 1527 1524 1521 1519 1517 1515 1515 1515 1514 1511 1510 1510 1510 1505 1501 1499 1503 1502 1505 1508 1509 1507 1506 1506 1506 1508 1507 1507 1509 1512 1516 1521 1521 1512 1507 1519 1516 1512 1512 1511 1510
1542 1539 1537 1534 1531 1528 1525 1523 1520 1519 1518 1517 1516 1515 1514 1513 1510 1507 1503 1500 1500 1499 1501 1502 1503 1505 1505 1505 1507 1509 1509 1509 1507 1510 1509 1514 1520 1528 1527 1517 1526 1516 1515 1512 1514 1516 1512
1537 1534 1532 1530 1528 1526 1523 1521 1519 1517 1516 1516 1515 1515 1515 1514 1509 1505 1503 1499 1500 1500 1501 1501 1501 1503 1503 1503 1510 1520 1522 1513 1514 1514 1513 1513 1519 1530 1531 1537 1525 1519 1517 1518 1523 1517 1514
1531 1529 1527 1525 1523 1522 1521 1518 1516 1515 1514 1513 1513 1513 1514 1514 1506 1506 1502 1501 1503 1502 1502 1500 1501 1502 1503 1505 1515 1524 1530 1526 1524 1519 1514 1514 1518 1523 1533 1529 1534 1517 1514 1516 1517 1526 1514
1525 1523 1521 1520 1519 1518 1516 1515 1513 1512 1511 1511 1511 1511 1512 1511 1505 1504 1502 1502 1501 1500 1503 1502 1501 1501 1502 1513 1525 1530 1530 1526 1529 1523 1521 1527 1528 1528 1529 1528 1521 1508 1508 1512 1523 1526 1511
1519 1518 1516 1514 1514 1513 1512 1511 1509 1508 1508 1508 1509 1509 1510 1508 1502 1503 1502 1501 1500 1499 1504 1503 1505 1503 1506 1516 1521 1526 1528 1527 1528 1521 1521 1526 1530 1533 1531 1530 1527 1508 1507 1510 1503 1502 1507
1513 1511 1510 1509 1509 1508 1508 1506 1505 1504 1503 1504 1506 1506 1506 1507 1502 1498 1498 1498 1499 1499 1499 1501 1503 1502 1503 1512 1517 1520 1522 1528 1528 1527 1519 1527 1520 1523 1523 1523 1510 1509 1507 1504 1505 1504 1509
Wind_Speed
15 14 13 13 13 12 11 11 10 10 10 11 12 13 14 16 15 12 12 12 11 10 9 7 5 5 5 3 2 3 3 8 15 16 17 17 10 5 2 2 8 3 9 9 4 8 6
16 15 14 13 13 13 12 11 10 10 9 10 11 12 14 15 15 13 12 12 12 10 9 8 6 5 3 2 4 4 6 3 12 17 19 17 8 6 6 6 2 8 8 5 1 6 10
16 16 15 14 13 12 13 12 11 10 10 10 11 12 13 14 15 14 12 12 12 9 8 9 7 5 5 3 3 1 1 2 4 14 16 18 11 4 8 1 5 17 7 7 7 2 6
16 15 15 15 15 14 13 12 12 11 10 10 11 12 13 14 14 13 12 11 11 9 8 7 6 9 4 9 4 5 3 2 4 9 13 9 9 7 3 8 6 2 6 3 6 9 7
16 16 16 16 16 15 14 12 12 12 11 11 11 12 13 14 14 11 10 11 12 8 7 7 7 8 2 5 8 8 3 2 4 7 7 9 3 4 3 3 4 6 6 4 2 8 5
19 17 17 16 16 16 15 13 13 12 12 11 12 13 13 13 12 8 7 10 8 6 6 7 5 5 4 8 3 7 9 6 2 3 4 4 4 3 3 4 2 4 7 4 3 3 3
19 18 17 16 16 15 16 15 14 13 13 13 13 13 14 12 9 3 4 9 10 3 15 7 12 7 8 9 3 6 11 8 5 0 3 2 1 4 5 4 1 5 9 6 2 6 1
22 20 19 17 16 15 15 15 14 15 15 15 16 16 14 8 2 4 5 10 10 9 10 10 8 10 8 8 3 6 11 7 4 4 0 5 4 5 2 6 11 8 9 5 3 2 2
23 22 20 18 17 16 16 16 15 15 16 17 18 17 10 3 7 3 6 10 15 17 2 8 6 6 1 2 3 2 7 8 3 4 2 4 4 7 5 10 9 2 5 7 5 3 2
25 23 22 20 19 18 18 17 16 16 17 18 19 15 6 5 6 2 6 13 14 6 5 6 3 1 2 3 2 7 7 4 3 8 4 4 6 6 9 5 6 5 1 7 12 4 2
24 24 22 22 20 20 19 18 17 17 17 17 17 12 2 4 3 3 9 12 14 2 4 3 2 1 2 4 1 6 12 6 4 3 4 7 2 4 6 11 6 3 11 9 4 4 1
26 24 23 22 22 21 20 19 18 18 16 16 15 10 2 3 2 4 9 12 5 5 3 6 2 0 1 3 2 3 8 4 4 2 1 8 11 7 7 4 7 14 10 4 3 4 3
26 25 24 23 22 23 22 20 18 18 16 15 12 8 1 3 2 5 12 9 5 5 4 6 3 1 1 3 2 3 4 3 3 3 3 5 2 4 18 14 4 6 4 3 4 2 4
27 26 25 24 23 24 23 21 19 17 15 12 9 8 5 5 4 7 13 4 7 3 4 5 4 3 4 7 4 2 3 1 1 3 1 1 3 5 8 7 11 9 5 6 2 2 3
27 27 27 25 24 23 24 23 19 17 14 10 11 12 0 6 4 5 7 5 5 4 3 4 4 6 4 4 1 3 1 4 1 4 6 3 5 5 6 3 13 5 4 2 7 2 0
26 27 27 27 25 24 24 24 20 17 13 10 12 10 2 7 6 4 5 3 3 4 3 4 3 3 2 5 7 4 2 3 3 1 4 1 1 4 2 7 7 5 7 3 2 4 4
25 26 26 27 27 25 24 24 23 18 14 9 10 3 0 2 4 2 3 5 5 4 5 3 2 4 1 3 2 3 3 3 3 6 6 1 2 4 1 2 8 2 2 3 4 4 4
24 25 26 27 27 26 24 23 25 21 17 9 6 3 2 4 2 2 1 5 4 3 4 5 4 2 4 4 5 5 3 4 11 2 3 3 4 1 3 5 4 7 3 4 4 3 1
23 24 25 26 27 26 24 22 22 22 19 16 9 4 1 4 1 3 5 5 3 2 2 2 5 4 2 4 3 3 5 11 10 1 0 2 3 3 7 7 6 6 2 0 3 3 3
21 23 24 25 26 26 24 21 20 19 16 13 4 3 3 1 2 3 3 4 3 3 6 8 2 6 4 7 5 4 6 4 12 6 4 4 2 5 5 5 3 4 5 2 5 4 2
22 22 22 23 24 24 24 21 18 18 13 8 2 2 2 3 5 6 2 3 3 3 3 4 5 4 4 4 4 5 4 6 5 12 6 4 2 1 4 7 2 2 3 7 6 3 3
22 22 22 22 22 23 23 22 18 16 12 3 3 4 3 5 9 6 5 1 4 3 3 1 5 3 3 4 5 3 0 0 1 6 4 6 0 5 4 7 6 4 5 7 5 3 6
23 22 21 21 21 22 22 21 18 13 12 3 4 3 3 3 4 3 1 4 6 8 1 7 6 5 3 3 2 1 7 11 5 1 2 3 2 3 3 3 4 6 6 6 2 6 4
26 23 21 20 19 20 21 20 18 13 10 9 7 5 3 3 1 3 4 3 5 4 6 2 7 5 3 2 12 18 18 15 17 12 3 3 3 2 3 4 4 2 4 9 7 5 5
26 25 21 19 18 19 19 18 17 14 9 8 7 5 2 3 4 5 11 2 2 1 1 2 4 2 1 2 4 5 5 4 6 4 7 5 4 3 3 1 4 2 1 3 2 2 3
25 24 22 19 18 18 18 19 17 14 10 8 7 3 2 2 4 5 4 2 2 0 3 0 3 3 1 4 4 2 2 1 4 8 3 4 6 3 2 4 7 4 3 1 3 1 4
23 23 24 21 18 17 18 18 17 14 11 7 4 9 4 4 6 4 2 2 2 3 2 3 3 2 2 3 3 2 3 2 2 1 2 3 3 3 2 2 4 6 7 1 5 6 6
22 23 24 20 17 17 18 18 15 13 11 8 5 8 7 5 15 12 4 6 2 3 3 0 3 4 4 4 3 3 3 4 1 3 3 4 4 3 1 3 5 1 2 6 4 16 13
21 22 20 18 18 16 17 17 15 13 11 9 6 11 6 11 9 8 11 10 7 3 4 3 3 3 4 4 1 3 2 2 3 2 2 2 5 3 7 5 4 3 2 3 6 14 14
Wind_Direction
34 30 28 25 23 20 16 13 14 14 12 13 14 12 13 13 9 3 359 355 355 352 354 346 338 335 335 281 222 103 29 161 176 186 186 180 176 183 279 230 114 154 166 180 172 315 306
29 25 21 19 17 16 13 9 5 3 358 359 358 359 1 4 4 358 353 351 350 350 354 348 339 332 320 291 132 115 67 124 193 190 193 192 188 195 278 234 155 176 131 167 233 297 293
25 25 22 18 13 8 9 7 2 354 343 341 343 346 350 350 355 354 349 350 350 348 341 351 349 331 279 168 93 158 97 359 226 209 195 196 171 333 331 15 119 124 124 154 127 349 291
17 18 19 18 15 11 3 359 359 351 340 332 336 335 338 340 345 349 343 348 346 339 336 340 342 335 262 156 170 219 221 277 208 205 205 207 222 281 247 130 76 83 53 24 34 333 248
16 14 13 11 11 10 6 359 356 351 347 337 333 330 333 334 337 343 338 339 332 319 320 323 326 336 292 224 231 205 226 259 170 177 171 144 225 237 159 98 55 27 113 70 6 318 285
20 15 12 9 7 6 4 360 355 352 351 345 337 331 329 329 330 343 344 342 340 321 324 329 333 331 17 350 214 219 206 196 45 153 142 194 213 92 42 80 217 156 124 129 177 296 237
18 15 11 9 7 5 3 358 354 354 354 348 339 332 328 325 330 30 4 3 2 350 320 279 294 283 307 360 160 111 199 198 230 139 135 193 131 195 212 176 87 114 105 117 186 254 270
17 14 12 10 9 6 3 358 357 356 353 350 344 337 330 325 39 108 44 24 29 338 311 325 295 278 283 299 292 166 189 186 157 199 233 24 254 218 205 148 122 124 125 131 200 226 231
19 17 15 11 9 6 1 359 0 357 356 353 348 346 350 31 135 136 19 25 353 343 254 298 289 273 290 258 213 177 184 202 148 143 160 148 249 143 148 131 128 208 160 179 139 125 340
18 17 13 10 7 4 2 0 358 357 359 355 354 355 22 103 120 38 38 351 348 331 55 291 298 308 222 216 291 225 213 156 45 196 159 235 255 165 144 174 156 174 231 134 127 128 244
17 15 14 11 8 4 2 358 355 357 360 356 358 357 59 155 132 3 341 341 334 312 52 291 265 135 196 181 314 203 209 208 179 216 106 252 269 161 185 209 140 180 108 113 136 98 200
15 13 11 8 6 4 2 358 354 355 359 357 360 4 86 168 203 331 335 333 318 42 22 332 320 91 29 228 233 125 185 217 230 226 274 241 256 172 211 148 125 125 102 54 109 70 325
13 11 9 6 2 2 1 358 354 353 358 1 4 14 106 186 257 327 331 332 44 85 348 311 294 249 107 296 44 129 137 151 175 35 344 317 354 67 104 91 52 128 115 53 42 345 238
10 9 7 4 1 357 359 359 353 353 357 1 346 337 319 234 214 309 337 51 65 272 275 301 343 60 31 19 342 127 100 259 151 124 189 85 355 188 192 157 173 171 143 138 110 272 263
7 6 5 1 359 355 355 358 355 354 356 357 335 336 3 176 215 313 347 51 198 231 240 348 9 55 354 341 74 73 170 192 232 186 173 151 293 297 185 130 132 229 206 190 118 333 239
2 2 2 0 358 354 352 356 356 357 358 356 343 341 180 211 230 294 65 244 260 240 4 48 99 173 64 325 23 34 19 297 334 207 188 208 166 270 114 96 279 182 165 76 23 154 232
358 357 358 358 358 354 352 353 354 359 360 354 352 5 25 231 245 352 119 238 276 336 59 74 217 19 350 36 356 40 293 286 24 335 85 136 121 261 120 179 189 187 225 58 124 145 170
349 352 354 355 355 355 351 354 352 354 4 358 9 18 77 42 32 40 210 199 261 26 24 37 95 70 50 17 55 31 329 335 356 348 18 350 128 27 245 300 311 127 104 144 129 213 197
341 344 347 350 352 353 352 351 355 353 359 2 346 304 320 198 127 298 293 279 259 91 9 43 44 42 56 55 63 43 342 322 16 96 56 335 8 26 348 2 353 39 344 315 111 63 186
334 337 340 344 347 350 351 350 351 356 349 347 347 9 335 34 318 209 292 258 166 60 67 74 75 75 59 21 18 27 343 334 4 14 356 98 85 146 166 214 253 352 323 52 107 99 201
325 330 334 339 343 346 347 349 350 352 353 344 336 299 13 314 321 344 230 301 108 104 70 67 36 74 120 40 25 9 337 330 354 15 3 71 74 258 231 216 237 226 86 48 66 315 125
318 319 326 329 336 341 343 345 348 351 351 352 354 359 350 291 304 323 356 260 141 132 111 66 122 137 105 139 159 243 87 348 290 333 42 1 158 0 340 330 73 78 39 78 52 48 79
321 313 315 322 327 334 338 340 343 349 355 355 344 287 279 275 332 38 280 281 229 134 85 148 160 122 132 209 231 116 118 85 79 117 60 63 86 58 275 358 130 330 0 64 77 24 140
312 313 307 310 320 328 334 336 336 337 345 357 349 335 323 275 318 279 303 248 166 163 138 166 154 128 224 210 106 112 96 77 56 35 34 112 93 70 259 343 184 102 345 76 87 58 50
302 305 304 302 309 321 326 330 331 323 320 324 326 310 305 281 264 306 337 321 95 97 354 192 182 139 259 95 62 58 344 4 4 28 18 36 123 84 133 107 332 268 47 89 282 303 3
294 294 300 296 297 311 319 322 324 315 302 306 306 227 276 289 245 310 308 349 195 317 4 337 127 190 347 77 67 98 238 288 317 337 49 71 75 115 138 150 200 223 212 267 244 117 311
290 289 292 294 291 303 309 315 315 311 293 282 257 238 267 253 280 346 347 266 169 112 117 322 357 100 46 74 86 148 228 205 238 242 334 9 6 149 181 226 282 216 217 286 131 224 232
290 288 285 288 287 295 303 309 307 304 286 267 248 220 234 248 262 267 275 343 344 98 130 338 51 2 56 74 122 201 166 218 152 240 191 179 152 218 63 47 279 339 180 176 193 165 178
291 288 282 285 286 291 297 302 302 297 276 255 222 202 235 262 265 261 257 268 249 276 165 148 154 184 177 91 139 114 171 125 168 248 21 272 185 190 171 215 250 296 310 65 172 161 172